DELTA 1 DEB

Satellite information

Favourite Embed

Satellite Type and Status

DEBRISIN ORBIT

Key statistics

Satellite DELTA 1 DEB at a glance.

Uptime

18589

Days in orbit

Revolutions

≈ 14.4

Per day

Orbit

SSO

Sun Synchronous Orbit

Inclination

97.6

Latest

Satellite identification and parameters

Extended collection of information and parameters for DELTA 1 DEB.

Object identification

Identified? True

Debris? True

Object name: DELTA 1 DEB

International designator: 1975-004EQ

Object number (NORAD): 9313

Object ID (CCSDS): 9313

Country: UNITED STATES OF AMERICA (US)

Current information (Y/N): Y

RCS size: SMALL

Orbital parameters

Period: 100.043 minutes

Inclination: 97.552 deg

SMA: 7138.67 km

Apoapsis: 822.36 km

Periapsis: 698.71 km

RAAN: 197.8418 deg

Eccentricy: 0.00866058

Argument of periapsis: 25.7017 deg

Mean anomaly: 334.844 deg

Mean motion: 14.39384557 rev/day

Mean motion (dot): 0.00000418 rev/day2

B* drag term: 0.00013989721 1/REarth

Two-line elements (TLE)

Creation date: Dec. 12, 2025, 10:14 a.m.

Reference frame: TEME

Reference center: EARTH

Epoch: Dec. 12, 2025, 1:15 a.m. UTC

TLE line 0: 0 DELTA 1 DEB

TLE line 1: 1 09313U 75004EQ 25346.05256917 .00000418 00000-0 13990-3 0 9995

TLE line 2: 2 09313 97.5520 197.8418 0086606 25.7017 334.8440 14.39384557608786

Live tracking on map

Real-time ground track for satellite DELTA 1 DEB.

In-orbit conjunctions

A list of the most updated potential collisions computed for object DELTA 1 DEB.

Target Orbit TCA Probability of collision Miss distance Type
CZ-6A DEB LEO 2025-01-12 20:27:11 0.0009310373 467.0 (m) DEBRIS
COSMOS 2251 DEB LEO 2024-05-28 18:00:33 0.0003838666 69.0 (m) DEBRIS

Associated space launch

Earth observation satellite

DELTA 1 DEB was lifted into orbit during the mission ‘Delta 2910 | Landsat 2’, on board a Delta 2910 space rocket.

The launch took place on Jan. 22, 1975, 5:55 p.m. from Space Launch Complex 2W.

For more information about the launch, click the button.

Launch to space Delta 2910 | Landsat 2
Delta 2910 | Landsat 2

Agency: N/A

Status: Launch Successful

Launch date: Jan. 22, 1975, 5:55 p.m. UTC

Rocket: Delta 2910

Launch pad: Space Launch Complex 2W

Location: Vandenberg SFB, CA, USA

...

Latest news about this satellite

There are no fresh news available about this satellite. Check back as we update our databases every day.


Newsletter sign-up

Weekly statistics, charts and insights to help you stay on top of the space industry.